Location: Unspecified
(0.0000°N, 0.0000°E)
Time: 00:13:07
(UTC+00:00)

CZ-3B DEB - Pass Details

Date: 22 February 2026
Orbit: 1033 x 41494 km, 26.9° (Epoch: 29 July)

Event Time Altitude Azimuth Distance (km) Brightness Sun altitude
Rises 16:28:04 0° 252° (WSW) 7,530 ? 25.9°
Reaches altitude 10° 16:31:38 10° 245° (WSW) 7,536 ? 25.0°
Maximum altitude 20:55:39 68° 197° (SSW) 40,208 ? -39.8°
Enters shadow 03:09:11 25° 273° (W) 26,980 ? -45.2°
Exits shadow 04:22:00 27° 295° (WNW) 12,376 ? -27.4°
Drops below altitude 10° 04:55:50 10° 33° (NNE) 4,503 ? -19.1°
Sets 04:58:31 0° 46° (NE) 4,839 ? -18.4°
